www.pogodaiklimat.ru

ПОГОДА в Мидлсборо, KY

  • Прогноз погоды в Мидлсборо
  • Монитор погоды в Мидлсборо
  • Климат в Мидлсборо

АРХИВ ПОГОДЫ в Мидлсборо

Время (UTC), дата Ветер
(напр.,м/с)
 
Видим.   Явления Облачность Т
(С)
Тd
(С)
f
(%)
Тe
(С)
Тes
(С)
Комфортность

P
(гПа)

Po
(гПа)
Тmin
(С)
Tmax
(С)
R
(мм)
SD
(см)
09:35 22.05   16 км    8/5 1950 м
[средняя] 
+13.7  +13.7  100  +13  +13      976.4         
09:55 22.05   16 км    8/8 1800 м
[средняя] 
+14.1  +14.0  99  +14  +14      976.7         
10:15 22.05   16 км    10/10 1800 м  +14.7  +14.1  96  +14  +14      976.7         
10:35 22.05   16 км    10/10 1800 м  +15.5  +14.4  93  +15  +15      976.7         
10:55 22.05   16 км    10/10 1800 м  +15.8  +14.9  94  +16  +16      977.0  +13.5  +15.8     
11:15 22.05   16 км    10/10 1800 м  +16.5  +15.3  93  +16  +16      977.7         
11:35 22.05   16 км    10/10 1800 м  +17.4  +15.3  87  +17  +17      978.0         
11:55 22.05   16 км    8/8 1800 м
[средняя] 
+18.5  +15.7  84  +19  +20      977.7         
12:15 22.05 СЗ  16 км    5/5 1800 м  +19.6  +16.3  81  +23  +25  комфорт    977.3         
12:35 22.05   16 км    ясно  +22.2  +16.4  70  +26  +33  душно    977.7         
12:55 22.05 ЮВ  16 км    5/5 1800 м  +23.8  +15.9  61  +27  +29  жарко    977.7         
13:15 22.05 ЮВ  16 км    5/5 1800 м
[средняя] 
+24.8  +16.3  59  +28  +33  жарко    978.0         
13:35 22.05 Ю  16 км    8/5 1470 м
[средняя] 
+24.7  +16.1  59  +28  +31  душно    978.0         
13:55 22.05 Ю  16 км    5/5 1470 м  +26.0  +16.4  55  +29  +34  душно    977.7         
14:15 22.05 Ю  16 км    ясно  +26.0  +16.0  54  +29  +40  душно    978.0         
14:35 22.05   16 км    ясно  +26.7  +16.7  54  +30  +49  душно    978.0         
14:55 22.05 Ю  16 км    ясно  +27.6  +16.9  52  +31  +43  душно    978.3         
15:15 22.05 Ю  16 км    ясно  +28.2  +17.1  51  +32  +47  душно    978.3         
15:35 22.05 Ю  16 км    ясно  +28.2  +16.8  50  +32  +48  душно    978.3         
15:55 22.05 Ю  5
{8} 
16 км    ясно  +28.9  +16.4  47  +32  +39  душно    978.3         
16:15 22.05 Ю  16 км    ясно  +29.2  +16.9  47  +33  +43  очень
душно 
  978.3         
16:35 22.05 Ю  3
{8} 
16 км    ясно  +29.5  +17.2  48  +34  +48  очень
душно 
  978.3         
16:55 22.05 Ю  16 км    ясно  +29.7  +17.6  48  +34  +49  очень
душно 
  978.0  +15.8  +29.9     
17:15 22.05 Ю  4
{8} 
16 км    ясно  +30.2  +16.8  45  +34  +47  очень
душно 
  978.0         
17:35 22.05 Ю  16 км    ясно  +30.7  +17.2  44  +34  +42  очень
душно 
  977.7         
17:55 22.05 Ю  4
{8} 
16 км    5/5 1950 м  +30.7  +16.9  44  +34  +41  очень
душно 
  977.7         
18:15 22.05 ЮЗ  3
{8} 
16 км    5/5 1950 м  +30.6  +16.8  44  +34  +42  очень
душно 
  977.3         
18:35 22.05 Ю  2
{8} 
16 км    5/5 1950 м
[средняя] 
+30.7  +16.7  43  +34  +42  очень
душно 
  977.3         
18:55 22.05 Ю  4
{7} 
16 км    5/5 1950 м  +31.1  +16.5  41  +34  +39  душно    977.3         
19:15 22.05 ЮЗ  3
{8} 
16 км    5/5 1950 м  +30.8  +16.1  41  +34  +40  очень
душно 
  977.3         
19:35 22.05 ЮЗ  16 км    5/5 1950 м
[средняя] 
+31.6  +16.6  41  +35  +39  очень
душно 
  977.3         
19:55 22.05 ЮЗ  4
{9} 
16 км    ясно  +31.6  +15.8  39  +34  +43  душно    977.3         
20:15 22.05 ЮЗ  16 км    ясно  +31.5  +16.0  39  +34  +43  душно    977.0         
20:35 22.05 Ю  16 км    ясно  +31.3  +15.6  39  +34  +38  душно    977.3         
20:55 22.05 ЮЗ  5
{8} 
16 км    ясно  +31.1  +15.2  38  +33  +37  душно    977.7         
21:15 22.05 ЮЗ  16 км    ясно  +31.0  +14.8  37  +33  +36  душно    977.3         
21:35 22.05 Ю  3
{8} 
16 км    ясно  +30.8  +14.5  37  +33  +37  душно    977.3         
21:55 22.05 ЮЗ  16 км    ясно  +30.6  +14.8  38  +33  +37  душно    977.3         
22:15 22.05 Ю  16 км    ясно  +30.4  +14.6  38  +32  +35  жарко    977.3         
22:35 22.05 Ю  16 км    ясно  +29.7  +15.0  41  +32  +34  душно    977.3         
22:55 22.05 Ю  16 км    ясно  +29.4  +15.0  42  +32  +34  душно    977.7  +29.4  +31.6     
23:15 22.05   16 км    ясно  +28.5  +15.4  45  +31  +32  душно    977.7         
23:35 22.05   16 км    ясно  +25.7  +16.4  56  +29  +30  душно    978.0         
23:55 22.05   16 км    ясно  +23.5  +17.1  67  +27  +28  душно    978.0         
00:15 23.05   16 км    ясно  +23.0  +17.0  69  +28  +28  душно    978.3         
00:35 23.05   16 км    ясно  +22.0  +16.9  73  +26  +26  душно    978.3         
00:55 23.05   16 км    ясно  +21.1  +17.0  77  +25  +25  комфорт    978.6         
01:15 23.05   16 км    ясно  +21.2  +16.7  75  +25  +25  комфорт    979.0         

 

Местоположение метеостанции Middlesboro-Bell County Airport: широта 36.6106 долгота -83.7372 высота над уровнем моря 352 м.

В архиве по умолчанию представлена погода в Мидлсборо за последние 1-2 суток. Обновление информации о фактической погоде в базе происходит ежечасно! Архивные данные за месяц целиком и за предыдущие месяцы Вы можете получить, выбрав интересующий диапазон дат из раскрывающегося списка и нажав кнопку "Ввод!".

Внимание! Архив погоды МЕТАР в базе сайта хранится не более 60 дней. Нет смысла пытаться выбрать более раннюю дату.

Внимание! Время в таблицах - всемирное. Для получения местного времени необходимо прибавить поправку, которая в Мидлсборо равна -5 ч.

Ветер - указаны скорость ветра в м/с и направление, откуда дует ветер: С - северный, СВ - северо-восточный, В - восточный, ЮВ - юго-восточный, Ю - южный, ЮЗ - юго-западный, З - западный, СЗ - северо-западный.
Видимость - горизонтальная дальность видимости в метрах или километрах. При видимости от 1 до 10 км при отсутствии осадков обычно наблюдается дымка, при ухудшении видимости до 1 км и менее - туман. В сухую погоду видимость может ухудшаться дымом, пылью или мглою.
Атмосферные явления - указаны явления, наблюдавшиеся в указанный момент времени.
Облачность - указаны через наклонную черту верхняя и нижняя облачность в баллах и высота нижней границы облаков в метрах. Внимание: облачность, как и прочие метеорологические величины в США измеряются автоматическими метеостанциями. Указанные значения в баллах носят условный характер и показывают процент времени, в течение которого, в среднем, лазерный луч высотомера отражался от облаков обратно.
T - Температура воздуха - температура, измеренная на высоте 2 м над землей.
Td - Температура точки росы - температура, при понижении до которой содержащийся в воздухе водяной пар достигнет насыщения.
f - Относительная влажность воздуха - влажноcть воздуха, измеренная на высоте 2 м над землей.
Te - Эффективная температура - температура, которую ощущает одетый по сезону человек в тени. Характеристика душности погоды. При расчете учитывается влияние влажности воздуха и скорости ветра на теплоощущения человека.
Tes - Эффективная температура на солнце - температура, которую ощущает человек, с поправкой на солнечный нагрев. Характеристика знойности погоды. Зависит от высоты солнца над горизонтом, облачности и скорости ветра. Ночью, в пасмурную погоду, а также при ветре 12 м/с и более поправка равна нулю.
P - Атмосферное давление - приведенное к уровню моря атмосферное давление.
Po - Атмосферное давление - измеренное на уровне метеостанции атмосферное давление.
Tmin - Минимальная температура - минимум температуры воздуха на высоте 2 м над землей.
Tmax - Максимальная температура - максимум температуры воздуха на высоте 2 м над землей.
R - Количество осадков - Количество выпавших осадков за 3 или 6 часов, мм.
SD - Снежный покров - Высота снежного покрова, см.